Погода в Сквамише

Канада     49°42′09″N   123°09′01″W
темп.,
°C
ветер,
м/с
пор.,
м/с
влажн.,
%
обл.,
%
осадки,
мм/ч
давл.,
гПа
погр.,
м
9 мая, вс
вс923:000ююв019990 0.3 102836
02:00+1в019994 0.0 102739
05:00+1св119897 0.0 102744
08:00+2з019496 0.0 1026203
11:00+5з118493 0.1 1025723
14:00+7юз1176100 0.4 1023877
17:00+7ююз117563 0.8 1023811
20:00+5ю119326 0.4 102311
10 мая, пн
пн1023:000ссв119739 0.4 102614
02:000ссв119734 0.0 102527
05:00−1ссв219715 0.0 102623
08:00+4ссв1187100 0.0 1025182
11:00+9юз1172100 0.1 10241021
14:00+8юз217199 0.1 1023671
17:00+9ююз1168100 0.2 1022683
20:00+7ююз1186100 0.1 102220
11 мая, вт
вт1123:00+3ссв119569 0.1 102411
02:00+2ссв21965 0.0 102517
05:00+1ссв2295100 0.0 102524
08:00+6ссв1181100 0.0 1023164
11:00+12юз11595 0.0 1021999
14:00+15ююз114731 0.0 10191770
17:00+13ююз3362100 0.1 1019694
20:00+9ююз2282100 0.1 101941
12 мая, ср
ср1223:00+7ююв0089100 0.1 102010
02:00+6св0088100 0.0 102010
05:00+6св009095 0.0 102010
08:00+9юз007695 0.0 1020222
11:00+12юз226083 0.0 10191220
14:00+11юз2271100 0.2 1019557
17:00+12ююз116485 0.3 1019736
20:00+11ююз117826 0.1 101918
13 мая, чт
чт1323:00+7св019250 0.2 102111
02:00+7всв1192100 0.0 102113
05:00+6с1192100 0.0 102112
08:00+9с1175100 0.0 1021219
11:00+14ююз1155100 0.0 10191222
14:00+16ююз2144100 0.0 10181862
17:00+15ююз3252100 0.1 10171318
20:00+11ююз227792 0.0 101748